Theta_e
306 303 302 306 305 306 305 307 303 307 308 312 314 315 318 320 321 322 325 327 331 336 338 342 345 353 357 355 356 355 358 358 360 365 367 368 368 369 370 370 370 371 370 371
300 302 301 300 304 305 306 307 308 308 308 316 317 319 318 319 320 320 322 323 327 334 338 343 345 348 352 355 354 357 360 359 363 365 368 367 368 369 369 369 370 370 369 369
296 302 301 298 303 305 306 308 308 305 311 315 315 316 317 319 321 321 323 325 327 332 338 342 346 349 351 355 355 357 359 362 364 365 366 367 366 368 368 368 368 368 368 368
295 299 290 304 311 309 307 308 310 310 312 314 316 318 320 322 321 322 323 325 329 329 332 340 343 343 351 351 357 358 359 361 364 365 365 366 367 367 368 368 367 368 368 368
292 293 299 303 304 304 305 307 312 311 313 315 316 317 317 320 323 324 326 327 329 329 329 333 336 341 347 350 351 353 358 360 362 364 365 365 365 366 368 365 365 364 365 368
294 290 290 301 307 310 311 302 313 316 316 317 317 310 314 322 323 325 326 327 327 329 330 331 334 338 345 349 353 356 358 360 363 365 365 365 366 366 367 366 361 360 360 365
291 290 296 304 309 315 300 308 320 321 323 324 322 323 327 330 331 332 332 331 332 332 332 338 338 343 350 349 351 358 356 357 363 367 367 368 368 368 366 364 363 364 361 365
290 289 287 304 304 304 312 318 320 321 322 323 326 329 331 333 334 334 333 334 332 333 333 337 344 347 357 356 359 362 362 358 364 367 360 358 367 363 365 365 363 362 361 353
294 293 303 305 306 309 311 312 315 319 321 322 323 326 329 334 337 337 338 337 334 337 336 341 346 351 352 362 364 360 360 363 365 366 361 364 365 363 358 362 357 356 355 354
297 300 302 305 307 310 312 312 315 319 321 321 322 325 329 336 339 339 341 337 341 338 339 346 352 354 355 356 361 360 360 359 360 361 361 362 359 359 357 356 356 354 353 351
297 301 302 304 307 308 309 315 316 319 321 323 324 326 331 337 342 341 341 349 347 347 351 353 356 357 356 356 358 355 356 357 358 358 359 360 353 351 359 364 351 357 357 357
293 301 302 303 307 310 309 309 311 313 317 323 327 328 330 340 345 344 344 347 349 350 355 360 358 353 360 359 358 358 357 356 355 356 358 358 352 342 308 305 303 304 311 337
300 304 304 306 308 309 308 309 311 313 318 322 325 326 336 334 334 329 337 338 340 342 344 347 347 347 351 356 361 359 355 352 350 345 348 349 351 352 343 319 305 301 300 302
304 304 302 305 304 308 309 310 311 317 323 324 325 330 332 329 331 334 334 336 338 340 341 345 347 345 347 349 350 350 347 324 348 345 348 350 350 348 344 340 336 332 307 306
301 301 300 303 304 305 308 311 311 315 323 322 327 329 330 328 328 331 334 336 334 334 335 337 339 338 345 348 347 346 343 343 344 343 345 339 344 343 340 336 334 329 327 314
300 301 300 300 302 306 309 309 316 320 320 320 327 326 328 330 330 331 331 331 330 331 333 334 335 338 340 340 340 340 338 327 335 339 335 333 334 335 334 334 334 330 330 333
298 298 303 305 305 305 308 316 318 318 321 322 328 328 332 332 331 330 331 331 331 332 334 336 337 340 342 343 341 340 339 336 330 339 337 336 335 334 335 338 339 334 332 323
311 311 315 312 310 311 315 317 319 319 318 323 326 324 324 325 324 324 324 325 325 324 327 333 339 341 342 341 340 339 339 338 338 338 338 337 336 336 335 333 329 327 324 316
308 312 314 312 312 316 317 318 318 314 314 315 314 315 318 319 319 319 319 319 319 319 321 327 325 334 338 334 336 339 338 338 337 337 336 327 334 333 330 330 330 331 328 324
305 307 306 306 307 308 309 314 314 313 312 312 311 312 316 316 317 316 317 315 315 316 320 320 326 328 331 334 332 337 337 336 336 336 336 335 333 332 331 320 328 326 325 327
302 304 304 304 302 304 305 306 308 311 314 312 310 309 308 308 307 311 313 310 312 318 318 319 323 327 329 328 330 333 335 335 333 331 330 330 330 331 331 327 326 327 329 329
303 301 302 303 302 301 302 304 305 305 308 309 310 310 312 309 308 309 310 311 313 310 317 318 318 318 323 324 328 330 330 330 331 330 330 329 329 327 325 327 328 326 327 328
305 305 303 302 302 302 302 302 302 303 303 304 308 307 306 306 308 305 302 308 310 310 315 316 312 312 314 320 322 323 322 322 323 324 324 323 321 320 319 316 315 319 320 324
304 306 305 305 304 304 302 303 303 302 301 303 303 304 307 305 306 307 308 307 306 308 308 309 310 310 312 316 315 313 315 316 311 311 311 305 318 318 321 316 309 309 309 308
304 305 304 303 303 302 302 304 304 304 304 302 303 303 305 303 302 303 306 307 304 307 308 306 307 308 314 315 315 315 314 310 307 308 308 311 312 311 312 310 316 313 308 307
301 302 302 303 303 303 302 301 300 301 302 301 302 303 303 303 304 305 304 304 306 305 306 306 307 309 308 308 310 311 311 311 313 313 310 311 311 309 308 307 307 305 310 310
301 299 301 300 301 301 301 300 299 297 299 300 300 301 302 303 302 302 301 303 303 303 304 304 304 305 306 306 306 306 307 307 302 310 311 312 312 312 312 312 310 306 305 304
Wind_Speed
15 3 5 11 28 30 30 26 27 18 20 18 11 10 7 7 6 3 4 6 10 13 13 13 15 16 19 21 19 21 21 22 23 21 19 19 19 19 19 19 19 19 19 19
15 11 9 11 14 16 20 27 27 26 23 13 10 11 19 16 15 13 14 13 9 12 13 13 15 18 18 19 20 19 19 22 20 19 19 20 19 19 19 19 19 19 20 20
14 12 11 17 21 20 19 19 18 23 16 15 19 16 14 15 12 14 15 13 11 11 12 12 14 15 18 18 18 19 19 18 18 18 19 19 18 18 20 20 18 20 20 21
7 7 18 12 13 19 24 21 20 19 16 15 16 17 17 18 19 21 21 18 13 13 11 13 13 14 14 16 17 19 19 19 18 18 18 17 18 20 20 18 20 19 19 20
12 13 11 7 4 5 10 13 16 18 16 16 19 20 21 20 18 19 21 20 16 16 13 12 11 12 13 16 18 19 19 21 20 19 19 18 20 21 16 16 16 16 16 17
7 16 17 2 10 11 7 9 2 1 5 8 12 15 11 14 15 17 19 17 18 19 18 15 15 13 15 18 17 19 21 21 18 18 18 20 18 16 14 15 16 14 17 16
13 12 8 13 8 2 14 7 6 7 6 7 9 10 16 21 21 17 15 16 15 16 15 15 11 12 14 16 19 22 17 17 16 16 17 16 14 14 14 15 13 15 15 14
14 17 22 9 11 11 11 10 12 12 12 13 15 15 17 19 22 22 21 19 19 14 13 12 10 12 13 16 17 12 14 15 15 15 14 14 14 14 14 14 14 15 15 14
12 10 10 10 13 14 15 16 17 17 17 17 19 19 20 21 19 20 21 16 16 12 10 9 11 12 13 13 11 12 13 14 14 14 15 12 14 14 13 15 14 15 15 14
17 19 22 17 20 17 16 20 20 19 21 20 24 23 24 21 19 17 16 16 12 12 10 9 8 10 11 11 11 12 13 13 13 14 14 14 12 12 13 13 13 13 13 14
19 21 23 22 22 23 17 13 19 22 22 20 22 24 24 23 22 16 13 8 9 8 6 6 5 6 8 11 13 14 13 12 13 12 13 12 6 4 10 11 8 10 11 11
18 19 17 19 19 16 14 18 19 21 24 22 21 23 21 18 13 4 5 7 5 5 8 9 8 7 3 8 10 11 11 10 10 9 11 8 8 5 15 13 13 11 7 5
21 24 24 22 19 20 21 23 23 22 23 23 16 15 12 3 5 5 7 6 6 7 6 8 9 9 7 5 7 7 6 7 7 6 7 8 7 7 5 8 17 20 16 13
22 19 24 25 21 20 20 24 24 24 20 14 13 14 2 6 6 9 10 8 8 9 9 9 11 10 9 10 11 9 9 8 7 7 7 6 6 6 8 8 9 8 11 11
24 22 23 24 25 27 26 22 22 22 18 11 11 7 8 12 11 9 9 12 11 11 10 10 11 11 9 10 11 10 8 7 7 7 7 7 6 6 7 6 6 6 5 5
19 21 21 22 25 25 24 21 22 16 13 9 11 8 12 15 15 14 15 13 12 10 10 11 10 9 9 9 11 10 10 10 9 7 7 7 7 7 6 6 6 4 4 4
17 18 18 21 17 20 19 21 9 8 14 14 18 14 17 16 18 19 18 16 16 15 13 9 8 9 9 10 10 7 7 8 7 7 7 6 6 5 6 5 2 0 2 3
10 12 9 8 12 13 6 6 5 4 5 7 16 19 16 18 16 17 17 16 16 17 16 13 11 10 9 9 10 9 9 8 7 6 6 6 7 5 5 5 4 4 5 5
24 11 13 9 6 6 8 9 17 15 10 12 15 19 20 18 15 17 18 19 18 17 15 12 10 10 10 8 4 8 8 9 9 7 7 6 8 7 5 4 4 5 5 7
27 25 26 25 24 20 20 18 17 13 11 14 15 15 18 16 13 16 19 20 14 7 11 13 10 9 10 11 9 11 10 9 8 8 6 8 5 7 8 6 4 5 4 5
25 26 25 23 22 24 23 18 15 14 18 15 13 19 19 17 18 14 16 14 13 12 11 16 10 8 9 9 9 10 9 8 7 7 8 8 7 8 9 8 5 1 3 3
18 19 21 22 22 21 19 18 17 16 17 16 16 14 14 17 16 17 15 14 12 12 14 13 12 13 12 16 11 13 13 12 10 8 9 9 8 9 8 8 7 5 5 5
17 17 16 16 15 15 18 17 16 18 20 17 14 15 14 14 12 12 13 15 13 14 15 15 16 15 15 13 12 13 13 14 12 11 10 9 9 8 8 9 8 7 8 7
19 18 17 13 15 15 16 12 12 13 12 14 16 18 12 11 13 12 12 13 16 18 17 16 18 18 18 13 15 14 14 14 10 8 8 12 10 9 7 9 8 7 7 8
16 16 18 16 15 12 13 13 12 14 13 14 14 13 15 12 11 9 10 13 16 14 15 15 17 18 14 13 14 13 13 11 8 10 11 11 9 9 9 8 7 9 7 7
15 11 11 15 14 11 11 11 11 12 11 12 12 11 11 11 10 9 11 13 14 14 13 13 15 13 13 13 12 12 12 11 11 10 9 9 11 10 10 11 10 9 10 9
11 13 10 10 11 11 11 12 12 11 11 10 11 10 11 10 11 11 11 11 11 11 11 11 11 12 11 11 10 10 11 10 12 9 9 9 9 9 9 8 9 9 9 8
Wind_Direction
257 322 274 265 216 211 221 222 228 234 222 236 242 247 295 318 303 207 201 241 238 228 219 214 214 209 204 208 204 206 200 204 208 209 210 208 210 209 210 209 210 209 207 209
251 232 234 242 232 243 243 234 233 241 249 249 215 249 269 266 282 279 278 273 264 246 235 218 214 210 206 207 206 206 201 206 206 205 205 207 208 207 209 212 212 212 213 211
231 215 251 248 229 226 231 233 240 240 249 260 262 259 260 279 277 280 285 283 267 242 240 244 219 211 210 203 199 203 212 207 207 206 207 207 207 208 212 212 211 215 215 215
263 190 238 253 218 222 227 230 230 245 253 257 256 254 255 256 265 272 275 279 256 252 238 229 233 225 211 204 203 203 204 208 207 205 207 205 207 212 212 210 214 215 216 219
237 228 282 245 162 234 231 238 232 241 246 252 244 250 251 253 259 258 258 262 260 258 268 269 256 231 217 208 201 203 206 208 206 203 204 202 209 212 209 213 217 222 225 225
221 240 234 256 248 210 273 255 230 355 254 272 276 253 255 251 252 266 258 264 274 279 278 262 245 237 204 204 200 205 206 208 203 203 204 207 209 209 208 212 217 220 222 225
229 251 251 267 86 334 205 60 16 6 351 324 285 300 313 304 295 288 293 295 287 282 266 261 241 221 207 201 206 212 208 207 205 205 206 208 206 206 204 208 212 209 214 220
233 243 237 276 311 240 11 325 330 329 331 325 309 304 294 286 287 287 279 280 280 276 259 248 228 208 202 203 215 200 207 204 201 200 202 202 206 202 205 205 208 210 216 211
232 235 262 310 304 316 318 315 316 309 310 309 303 299 302 299 287 280 275 272 273 271 257 229 209 210 209 217 202 196 199 199 196 195 199 209 191 198 199 202 216 211 220 226
272 258 268 274 276 298 315 298 300 305 301 301 303 305 307 302 289 275 271 262 255 250 231 222 212 208 213 198 187 181 186 191 194 192 190 195 190 194 204 204 209 223 225 228
261 254 263 272 276 278 288 312 306 309 304 300 301 303 308 302 292 279 265 272 253 228 206 190 196 187 179 173 176 180 184 183 189 187 183 182 176 223 210 215 218 220 227 239
256 256 259 256 258 285 292 294 297 298 300 301 306 304 304 288 302 320 249 234 197 169 179 145 96 66 119 174 175 174 167 175 180 170 166 167 168 130 52 28 38 31 31 319
257 262 270 273 271 276 281 284 285 283 281 286 298 292 263 134 59 58 70 76 90 94 86 88 87 77 70 79 125 158 153 134 141 136 151 158 165 181 133 45 54 45 32 49
268 263 255 256 262 269 278 281 281 271 265 280 275 270 201 103 103 94 79 76 82 83 81 89 82 67 74 85 98 103 103 76 124 128 132 142 135 136 136 137 119 112 48 47
250 248 259 265 269 268 264 266 258 264 266 264 259 221 131 107 89 87 90 91 77 69 56 60 63 54 55 83 92 90 89 95 99 106 105 104 109 104 108 115 118 131 140 82
234 236 239 239 246 250 250 253 252 255 277 260 215 152 130 118 113 99 86 74 72 71 66 61 57 59 66 69 75 79 75 71 93 104 111 114 119 127 120 139 146 162 203 182
218 234 238 244 210 233 238 249 254 268 289 240 181 142 119 107 100 94 88 81 73 66 55 52 77 89 84 82 85 90 88 72 65 104 110 115 119 142 174 211 120 185 178 155
214 230 244 166 212 215 195 259 177 35 340 89 88 95 89 87 83 83 83 81 76 64 53 43 53 58 61 77 87 101 113 120 126 121 113 102 90 88 81 83 117 110 110 121
30 38 107 130 201 108 81 78 67 54 60 70 89 87 83 80 78 74 72 63 56 49 32 27 11 62 64 5 19 94 101 104 104 88 83 115 85 87 72 68 65 87 112 123
26 46 55 49 49 53 48 45 56 57 50 52 44 73 77 68 71 73 68 62 49 41 23 28 30 46 53 42 8 63 65 73 83 78 68 90 96 114 120 75 79 103 143 181
22 27 34 39 45 47 45 37 41 57 71 64 59 56 65 62 51 39 51 60 39 38 51 55 27 42 36 40 53 70 71 66 70 83 63 54 45 52 92 92 79 125 208 161
40 31 30 29 41 44 35 30 28 31 41 42 38 45 56 72 64 63 55 55 56 14 54 52 54 38 57 46 42 36 50 51 54 56 66 66 61 66 51 42 76 37 54 42
33 47 44 36 36 48 46 37 27 29 36 26 33 51 59 66 59 60 58 44 46 39 50 45 16 21 53 64 59 65 58 53 51 50 50 73 72 64 63 56 43 41 48 42
26 32 50 47 48 37 39 27 54 49 45 47 46 38 36 56 61 56 53 60 61 53 48 32 28 29 51 59 67 61 53 69 61 58 64 31 32 42 46 85 63 53 39 44
21 29 29 31 41 49 42 33 52 55 54 47 50 47 52 60 50 33 42 53 34 53 53 40 42 43 48 50 48 46 60 64 60 59 56 55 59 61 56 39 55 96 82 61
21 26 36 39 37 36 45 45 45 40 48 54 49 51 56 48 45 61 59 51 51 48 51 47 34 49 51 41 39 51 50 38 38 47 62 76 80 72 65 57 53 41 47 66
32 18 33 36 31 40 38 44 51 42 36 44 55 48 41 45 45 45 42 48 48 49 49 51 44 38 43 37 40 35 42 55 38 35 43 44 39 33 45 74 104 101 82 55